Location: Recife
(8.0585°S, 34.8848°W)
Time: 11:26:47
(UTC-03:00)

Vanguard 2 Rocket - Pass Details

Date: 17 April 2026
Orbit: 553 x 3286 km, 32.9° (Epoch: 7 May)

Event Time Altitude Azimuth Distance (km) Brightness Sun altitude
Rises 16:23:21 0° 256° (WSW) 7,254 12.7 12.0°
Reaches altitude 10° 16:29:31 10° 266° (W) 6,110 13.0 10.5°
Maximum altitude 16:44:10 29° 318° (NW) 3,972 11.1 7.0°
Drops below altitude 10° 16:54:50 10° 13° (NNE) 4,370 10.4 4.4°
Sets 16:58:25 0° 25° (NNE) 4,976 10.5 3.5°
